Overview Statistics Trail Chart Weather Telemetry Raw packets
 

This is the latest recevied weather packets stored in our database for station/object R2AJV-13. If no packets are shown the sender has not sent any weather packets the latest 10 day(s).

<< 9 10 11 12 13 14 15 >>
Time Temp. Humidity Pressure Rain* Wind** Luminosity Snow
1788276670 21.11° C 79% 999.2 hPa 0 mm - - -
1788275759 21.67° C 76% 999.2 hPa 0 mm - - -
1788274848 22.22° C 74% 999.4 hPa 0 mm - - -
1788273937 23.33° C 69% 999.4 hPa 0 mm - - -
1788273033 23.33° C 68% 999.2 hPa 0 mm - - -
1788272122 23.33° C 70% 999.4 hPa 0 mm - - -
1788271272 23.89° C 66% 999.6 hPa 0 mm - - -
1788270361 25° C 65% 999.5 hPa 0 mm - - -
1788268545 23.33° C 70% 999.9 hPa 0 mm - - -
1788267670 23.33° C 71% 1000.2 hPa 0 mm - - -
1788266758 23.33° C 71% 1000.4 hPa 0 mm - - -
1788264937 23.89° C 70% 1000.6 hPa 0 mm - - -
1788264027 23.89° C 68% 1000.7 hPa 0 mm - - -
1788263120 23.89° C 69% 1000.8 hPa 0 mm - - -
1788262270 23.89° C 66% 1000.9 hPa 0 mm - - -
1788261361 23.89° C 65% 1000.9 hPa 0 mm - - -
1788260465 24.44° C 66% 1001 hPa 0 mm - - -
1788259550 25° C 65% 1001.1 hPa 0 mm - - -
1788258640 24.44° C 68% 1001.1 hPa 0 mm - - -
1788257722 23.33° C 69% 1001.1 hPa 0 mm - - -
1788256872 25° C 64% 1001.1 hPa 0 mm - - -
1788255961 23.89° C 66% 1001.1 hPa 0 mm - - -
1788255056 24.44° C 65% 1001.2 hPa 0 mm - - -
1788254146 23.89° C 70% 1001.3 hPa 0 mm - - -
1788253262 23.33° C 71% 1001.3 hPa 0 mm - - -

* Rain latest hour (hover to see other rain measurements)
** Current wind speed in m/s (hover to see current wind gust speed)